Flight Track Log - Related Links

Times and Time Zones

All times are in EDT time to prevent confusion due to time zone crossing. See the N789EX flight status page for this flight to view local times or setup timezone preferences in your user account.

Time Position Orientation Groundspeed Altitude Reporting Facility
EDT Latitude Longitude Course Direction KTS MPH feet Rate Location/Type
12:03PM 47.4868 -122.2620 154° Southeast 198 228 2,100  Level FlightAware ADS-B
12:03PM 47.4801 -122.2570 151° Southeast 216 249 2,000 -500 Descending FlightAware ADS-B
12:03PM 47.4760 -122.2530 147° Southeast 229 264 2,000 750 Level FlightAware ADS-B
12:04PM 47.4729 -122.2500 145° Southeast 234 269 2,100 1,800 Climbing FlightAware ADS-B
12:04PM 47.4674 -122.2440 144° Southeast 237 273 2,300 2,000 Climbing FlightAware ADS-B
12:04PM 47.4539 -122.2290 142° Southeast 248 285 2,800 2,516 Climbing FlightAware ADS-B
12:04PM 47.4393 -122.2130 143° Southeast 256 295 3,600 2,903 Climbing FlightAware ADS-B
12:04PM 47.4245 -122.1960 143° Southeast 262 302 4,300 3,200 Climbing FlightAware ADS-B
12:05PM 47.4096 -122.1800 144° Southeast 261 300 5,200 3,400 Climbing FlightAware ADS-B
12:05PM 47.3949 -122.1640 144° Southeast 266 306 6,000 3,200 Climbing FlightAware ADS-B
12:05PM 47.3799 -122.1480 144° Southeast 270 311 6,800 3,120 Climbing FlightAware ADS-B
12:05PM 47.3700 -122.1370 142° Southeast 272 313 7,300 2,769 Climbing FlightAware ADS-B
12:05PM 47.3668 -122.1330 139° Southeast 275 316 7,400 2,250 Climbing FlightAware ADS-B
12:05PM 47.3630 -122.1270 132° Southeast 279 321 7,600 3,333 Climbing FlightAware ADS-B
12:06PM 47.3597 -122.1210 124° Southeast 283 326 7,900 4,000 Climbing FlightAware ADS-B
12:06PM 47.3568 -122.1130 116° Southeast 287 330 8,200 3,750 Climbing FlightAware ADS-B
12:06PM 47.3553 -122.1070 109° East 290 334 8,400 3,429 Climbing FlightAware ADS-B
12:06PM 47.3537 -122.0980 102° East 295 339 8,600 3,429 Climbing FlightAware ADS-B
12:06PM 47.3533 -122.0920 97° East 299 344 8,800 2,571 Climbing FlightAware ADS-B
12:06PM 47.3532 -122.0850 89° East 303 349 8,900 2,571 Climbing FlightAware ADS-B
12:06PM 47.3537 -122.0770 83° East 306 352 9,100 2,250 Climbing FlightAware ADS-B
12:06PM 47.3551 -122.0690 76° East 308 354 9,200 2,400 Climbing FlightAware ADS-B
12:06PM 47.3578 -122.0590 66° East 310 357 9,500 3,000 Climbing FlightAware ADS-B
12:06PM 47.3605 -122.0520 58° Northeast 310 357 9,600 3,000 Climbing FlightAware ADS-B
12:06PM 47.3646 -122.0450 50° Northeast 309 356 9,900 3,176 Climbing FlightAware ADS-B
12:06PM 47.3769 -122.0270 41° Northeast 306 352 10,500 3,158 Climbing FlightAware ADS-B
12:07PM 47.3844 -122.0190 36° Northeast 302 348 10,900 3,231 Climbing FlightAware ADS-B
12:07PM 47.3916 -122.0130 29° Northeast 299 344 11,200 3,333 Climbing FlightAware ADS-B
12:07PM 47.3954 -122.0100 22° Northeast 297 342 11,400 3,000 Climbing FlightAware ADS-B
12:07PM 47.3998 -122.0080 16° North 296 341 11,500 2,571 Climbing FlightAware ADS-B
12:07PM 47.4052 -122.0070 North 294 338 11,700 2,250 Climbing FlightAware ADS-B
12:07PM 47.4103 -122.0060 North 294 338 11,800 1,714 Climbing FlightAware ADS-B
12:07PM 47.4147 -122.0070 355° North 294 338 11,900 1,500 Climbing FlightAware ADS-B
12:07PM 47.4218 -122.0090 345° North 293 337 12,000 667 Climbing FlightAware ADS-B
12:07PM 47.4258 -122.0110 337° Northwest 291 335 12,000 750 Level FlightAware ADS-B
12:07PM 47.4310 -122.0150 329° Northwest 290 334 12,100 2,000 Climbing FlightAware ADS-B
12:07PM 47.4358 -122.0210 318° Northwest 286 329 12,300 2,250 Climbing FlightAware ADS-B
12:07PM 47.4391 -122.0260 312° West 283 326 12,400 2,250 Climbing FlightAware ADS-B
12:07PM 47.4423 -122.0330 303° West 280 322 12,600 2,250 Climbing FlightAware ADS-B
12:08PM 47.4489 -122.0510 295° West 278 320 13,000 2,333 Climbing FlightAware ADS-B
12:08PM 47.4524 -122.0640 292° West 279 321 13,300 2,400 Climbing FlightAware ADS-B
12:08PM 47.4540 -122.0710 287° West 279 321 13,400 1,714 Climbing FlightAware ADS-B
12:08PM 47.4549 -122.0760 282° West 278 320 13,500 2,571 Climbing FlightAware ADS-B
12:08PM 47.4555 -122.0820 276° West 277 319 13,700 3,750 Climbing FlightAware ADS-B
12:08PM 47.4556 -122.0930 268° West 274 315 14,000 3,273 Climbing FlightAware ADS-B
12:08PM 47.4550 -122.1020 263° West 272 313 14,300 2,800 Climbing FlightAware ADS-B
12:08PM 47.4531 -122.1190 259° West 267 307 14,700 1,448 Climbing FlightAware ADS-B
12:08PM 47.4475 -122.1540 256° West 260 299 15,000 643 Climbing FlightAware ADS-B
12:09PM 47.4454 -122.1663 256° West 257 296 15,000 522 Level FlightAware ADS-B (CYVR)
12:09PM 47.4409 -122.1930 257° West 257 296 15,200 1,556 Climbing FlightAware ADS-B
12:09PM 47.4383 -122.2130 261° West 260 299 15,700 2,727 Climbing FlightAware ADS-B
12:09PM 47.4369 -122.2320 265° West 263 303 16,200 2,368 Climbing FlightAware ADS-B
12:10PM 47.4354 -122.2830 269° West 274 315 17,200 2,063 Climbing FlightAware ADS-B
12:10PM 47.4352 -122.2900 266° West 274 315 17,300 1,200 Climbing FlightAware ADS-B
12:10PM 47.4352 -122.2892 266° West 273 314 17,300 2,571 Level FlightAware ADS-B (CYVR)
12:10PM 47.4341 -122.3040 262° West 272 313 17,600 2,800 Climbing FlightAware ADS-B
12:10PM 47.4319 -122.3190 256° West 269 310 18,000 2,571 Climbing FlightAware ADS-B
12:10PM 47.4301 -122.3282 253° West 268 308 18,200 2,250 Climbing FlightAware ADS-B (CYVR)
12:10PM 47.4289 -122.3340 251° West 266 306 18,300 2,727 Climbing FlightAware ADS-B
12:11PM 47.4160 -122.3840 249° West 264 304 19,700 2,667 Climbing FlightAware ADS-B
12:11PM 47.4173 -122.3786 249° West 264 304 19,900 2,000 Climbing FlightAware ADS-B (CYVR)
12:11PM 47.4027 -122.4360 250° West 273 314 20,700 1,800 Climbing FlightAware ADS-B
12:11PM 47.4007 -122.4441 250° West 279 321 20,800 750 Climbing FlightAware ADS-B (CYVR)
12:12PM 47.3882 -122.4930 250° West 300 345 21,100 800 Climbing FlightAware ADS-B
12:12PM 47.3863 -122.5007 250° West 304 350 21,200 800 Climbing FlightAware ADS-B (CYVR)
12:12PM 47.3729 -122.5530 249° West 327 376 21,500 894 Climbing FlightAware ADS-B
12:13PM 47.3615 -122.5978 249° West 341 392 21,900 1,000 Climbing FlightAware ADS-B
12:13PM 47.3561 -122.6190 249° West 348 400 22,000 154 Climbing FlightAware ADS-B
12:13PM 47.3380 -122.6880 249° West 380 437 22,000  Level FlightAware ADS-B
12:13PM 47.3374 -122.6907 249° West 381 438 22,000  Level FlightAware ADS-B
12:14PM 47.3184 -122.7640 249° West 407 468 22,000  Level FlightAware ADS-B
12:14PM 47.3110 -122.7924 249° West 416 479 22,000  Level FlightAware ADS-B
12:14PM 47.2973 -122.8450 249° West 419 482 22,000  Level FlightAware ADS-B
12:14PM 47.2920 -122.8650 249° West 418 481 22,000  Level FlightAware ADS-B
12:15PM 47.2759 -122.9270 249° West 420 483 22,000  Level FlightAware ADS-B
12:15PM 47.2620 -122.9794 249° West 423 487 22,000  Level FlightAware ADS-B
12:15PM 47.2544 -123.0080 249° West 425 489 22,000  Level FlightAware ADS-B
12:16PM 47.2473 -123.0348 248° West 428 493 22,000  Level FlightAware ADS-B
12:16PM 47.2309 -123.0950 248° West 428 493 22,000  Level FlightAware ADS-B
12:16PM 47.2229 -123.1220 245° Southwest 429 494 22,000 -429 Level FlightAware ADS-B
12:16PM 47.2199 -123.1310 241° Southwest 429 494 21,900 -857 Descending FlightAware ADS-B
12:16PM 47.2147 -123.1410 230° Southwest 428 493 21,900 -462 Level FlightAware ADS-B
12:16PM 47.2038 -123.1554 223° Southwest 430 495 21,800 -429 Descending FlightAware ADS-B
12:16PM 47.1951 -123.1690 230° Southwest 429 494 21,800 429 Level FlightAware ADS-B
12:16PM 47.1852 -123.1892 236° Southwest 425 489 21,900 750 Climbing FlightAware ADS-B (CYVR)
12:17PM 47.1769 -123.2080 237° Southwest 424 488 22,000 231 Climbing FlightAware ADS-B
12:17PM 47.1584 -123.2520 240° Southwest 426 490 22,000  Level FlightAware ADS-B
12:17PM 47.1558 -123.2600 248° West 422 486 22,000  Level FlightAware ADS-B
12:17PM 47.1588 -123.2511 253° West 420 483 22,000  Level FlightAware ADS-B (CYVR)
12:17PM 47.1528 -123.2760 256° West 421 484 22,000 -545 Level FlightAware ADS-B
12:17PM 47.1443 -123.3250 254° West 425 489 21,800 -720 Descending FlightAware ADS-B
12:17PM 47.1388 -123.3450 244° Southwest 427 491 21,700 545 Descending FlightAware ADS-B
12:17PM 47.1353 -123.3530 236° Southwest 424 488 21,900 2,571 Climbing FlightAware ADS-B
12:18PM 47.1304 -123.3620 230° Southwest 421 484 22,000 1,714 Climbing FlightAware ADS-B
12:18PM 47.1261 -123.3689 229° Southwest 420 483 22,100 375 Climbing FlightAware ADS-B (CYVR)
12:18PM 47.1106 -123.3980 234° Southwest 418 481 22,100 -286 Level FlightAware ADS-B
12:18PM 47.1050 -123.4116 241° Southwest 421 484 22,000 -400 Descending FlightAware ADS-B (CYVR)
12:18PM 47.0816 -123.4730 241° Southwest 425 489 21,900 -400 Descending FlightAware ADS-B
12:18PM 47.0741 -123.4930 241° Southwest 426 490 21,800 -286 Descending FlightAware ADS-B (CYVR)
12:19PM 47.0624 -123.5240 242° Southwest 426 490 21,800  Level FlightAware ADS-B
12:19PM 47.0588 -123.5350 245° Southwest 426 490 21,800  Level FlightAware ADS-B
12:19PM 47.0555 -123.5490 253° West 422 486 21,800 857 Level FlightAware ADS-B
12:19PM 47.0553 -123.5760 273° West 412 474 22,000 545 Climbing FlightAware ADS-B
12:19PM 47.0564 -123.6106 272° West 415 478 22,000 -261 Level FlightAware ADS-B (CYVR)
12:19PM 47.0570 -123.6380 271° West 418 481 21,900 -462 Descending FlightAware ADS-B
12:19PM 47.0569 -123.6470 268° West 419 482 21,900  Level FlightAware ADS-B
12:19PM 47.0559 -123.6580 259° West 420 483 21,900 857 Level FlightAware ADS-B
12:20PM 47.0541 -123.6660 249° West 418 481 22,000 857 Climbing FlightAware ADS-B
12:20PM 47.0506 -123.6770 244° Southwest 418 481 22,000 -240 Level FlightAware ADS-B
12:20PM 47.0329 -123.7265 242° Southwest 420 483 21,900 -200 Descending FlightAware ADS-B (CYVR)
12:20PM 47.0239 -123.7530 244° Southwest 421 484 21,900 154 Level FlightAware ADS-B
12:21PM 46.9985 -123.8300 244° Southwest 418 481 22,000 113 Climbing FlightAware ADS-B
12:21PM 46.9790 -123.8890 245° Southwest 416 479 22,000  Level FlightAware ADS-B
12:21PM 46.9669 -123.9314 251° West 414 476 22,000 207 Level FlightAware ADS-B (CYVR)
12:21PM 46.9630 -123.9640 268° West 406 467 22,100 1,200 Climbing FlightAware ADS-B
12:21PM 46.9637 -123.9720 277° West 398 458 22,300 3,000 Climbing FlightAware ADS-B
12:22PM 46.9639 -123.9746 278° West 398 458 22,300  Level FlightAware ADS-B (CYVR)
12:22PM 46.9677 -124.0160 276° West 389 448 22,300 -273 Level FlightAware ADS-B
12:22PM 46.9682 -124.0310 271° West 388 447 22,200 -1,000 Descending FlightAware ADS-B
12:22PM 46.9678 -124.0470 266° West 389 448 22,100 -545 Descending FlightAware ADS-B
12:22PM 46.9667 -124.0600 261° West 392 451 22,100  Level FlightAware ADS-B
12:22PM 46.9682 -124.0302 269° West 388 447 22,100  Level FlightAware ADS-B
12:22PM 46.9647 -124.0740 256° West 396 456 22,100  Level FlightAware ADS-B
12:22PM 46.9613 -124.0890 250° West 402 463 22,100 -400 Level FlightAware ADS-B
12:22PM 46.9547 -124.1120 245° Southwest 411 473 22,000 -600 Descending FlightAware ADS-B
12:22PM 46.9558 -124.1082 244° Southwest 412 474 22,000 -375 Level FlightAware ADS-B
12:23PM 46.9399 -124.1520 239° Southwest 416 479 21,900 -130 Descending FlightAware ADS-B
12:23PM 46.9082 -124.2250 237° Southwest 420 483 21,900  Level FlightAware ADS-B
12:23PM 46.9365 -124.1597 238° Southwest 415 478 21,900 -1,680 Level FlightAware ADS-B
12:24PM 46.8818 -124.2840 235° Southwest 419 482 21,200 -1,440 Descending FlightAware ADS-B
12:24PM 46.8746 -124.2950 221° Southwest 427 491 21,300 600 Climbing FlightAware ADS-B
12:24PM 46.8761 -124.2931 216° Southwest 428 493 21,300  Level FlightAware ADS-B
12:24PM 46.8572 -124.3150 221° Southwest 420 483 21,300 1,059 Level FlightAware ADS-B
12:24PM 46.8187 -124.3680 223° Southwest 427 491 21,900 1,371 Climbing FlightAware ADS-B
12:24PM 46.8092 -124.3812 226° Southwest 426 490 22,100 2,250 Climbing FlightAware ADS-B
12:24PM 46.8073 -124.3840 227° Southwest 425 489 22,200 1,548 Climbing FlightAware ADS-B
12:25PM 46.7687 -124.4500 230° Southwest 422 486 22,900 -346 Climbing FlightAware ADS-B
12:25PM 46.7410 -124.4980 231° Southwest 426 490 21,900 -2,222 Descending FlightAware ADS-B
12:25PM 46.7357 -124.5100 242° Southwest 413 475 21,900 -923 Level FlightAware ADS-B
12:26PM 46.7293 -124.5290 241° Southwest 410 472 21,700 -2,143 Descending FlightAware ADS-B
12:26PM 46.7240 -124.5440 233° Southwest 417 480 21,400 -667 Descending FlightAware ADS-B
12:26PM 46.6930 -124.5860 227° Southwest 412 474 21,400 453 Level FlightAware ADS-B
12:27PM 46.6550 -124.6530 232° Southwest 417 480 21,800 677 Climbing FlightAware ADS-B
12:27PM 46.6208 -124.7220 234° Southwest 417 480 22,100 300 Climbing FlightAware ADS-B
12:28PM 46.5863 -124.7910 234° Southwest 418 481 22,100  Level FlightAware ADS-B
12:28PM 46.5476 -124.8710 235° Southwest 418 481 22,100  Level FlightAware ADS-B
12:29PM 46.4947 -125.0030 260° West 402 463 22,100 -167 Level FlightAware ADS-B
12:29PM 46.4981 -125.0450 277° West 398 458 21,900 -182 Descending FlightAware ADS-B
12:30PM 46.5020 -125.0920 275° West 401 461 22,000  Climbing FlightAware ADS-B
12:30PM 46.5016 -125.1150 264° West 405 466 21,900 -462 Descending FlightAware ADS-B
12:30PM 46.5008 -125.1260 257° West 408 470 21,900 -294 Level FlightAware ADS-B
12:31PM 46.3724 -125.3170 175° South 499 574 21,400  Descending FlightAware ADS-B
12:33PM 46.2491 -125.4260 176° South 498 573 21,900 340 Climbing FlightAware ADS-B
12:33PM 46.2242 -125.4970 253° West 399 459 22,000 198 Climbing FlightAware ADS-B
12:34PM 46.2099 -125.6610 263° West 415 478 22,200 171 Climbing FlightAware ADS-B
12:34PM 46.2062 -125.6820 253° West 420 483 22,200  Level FlightAware ADS-B
12:39PM 46.2689 -125.1380 21° North 523 602 22,200 42 Level FlightAware ADS-B
12:39PM 46.3391 -125.1160 360° North 479 551 22,400 176 Climbing FlightAware ADS-B
12:39PM 46.3458 -125.1160 North 480 552 22,300 -889 Descending FlightAware ADS-B
12:40PM 46.3992 -125.1080 10° North 496 571 22,000 -514 Descending FlightAware ADS-B
12:40PM 46.4225 -125.0990 17° North 507 583 22,000 632 Level FlightAware ADS-B
12:40PM 46.4405 -125.0890 24° Northeast 513 590 22,200 1,765 Climbing FlightAware ADS-B
12:40PM 46.4598 -125.0730 32° Northeast 520 598 22,500 1,826 Climbing FlightAware ADS-B
12:40PM 46.4863 -125.0450 40° Northeast 533 613 22,900 1,846 Climbing FlightAware ADS-B
12:40PM 46.5081 -125.0140 46° Northeast 542 624 23,300 1,200 Climbing FlightAware ADS-B
12:41PM 46.5300 -124.9780 51° Northeast 554 638 23,400 286 Climbing FlightAware ADS-B
12:41PM 46.5430 -124.9520 55° Northeast 566 651 23,400 154 Level FlightAware ADS-B
12:41PM 46.5838 -124.8510 61° Northeast 586 674 23,500 -984 Climbing FlightAware ADS-B
12:42PM 46.6237 -124.7470 61° Northeast 581 669 22,400 -1,957 Descending FlightAware ADS-B
12:42PM 46.6435 -124.6940 61° Northeast 564 649 22,000 -2,000 Descending FlightAware ADS-B
12:42PM 46.6552 -124.6680 54° Northeast 553 636 21,600 -1,385 Descending FlightAware ADS-B
12:43PM 46.6855 -124.6210 47° Northeast 534 615 21,400 375 Descending FlightAware ADS-B
12:43PM 46.7358 -124.5420 47° Northeast 523 602 21,900 590 Climbing FlightAware ADS-B
12:44PM 46.7859 -124.4640 46° Northeast 512 589 22,000 724 Climbing FlightAware ADS-B
12:44PM 46.8300 -124.3950 48° Northeast 514 592 22,600 1,500 Climbing FlightAware ADS-B
12:44PM 46.8366 -124.3845 49° Northeast 514 592 22,800 1,714 Climbing FlightAware ADS-B
12:44PM 46.8513 -124.3590 52° Northeast 521 600 23,000 1,500 Climbing FlightAware ADS-B
12:44PM 46.8616 -124.3380 55° Northeast 528 608 23,200 1,765 Climbing FlightAware ADS-B
12:45PM 46.8739 -124.3090 61° Northeast 535 616 23,500 2,000 Climbing FlightAware ADS-B
12:45PM 46.8825 -124.2840 66° East 539 620 23,800 2,400 Climbing FlightAware ADS-B
12:45PM 46.8890 -124.2590 71° East 544 626 24,100 2,182 Climbing FlightAware ADS-B
12:45PM 46.8919 -124.2450 74° East 547 629 24,200 1,636 Climbing FlightAware ADS-B
12:45PM 46.8958 -124.2200 80° East 554 638 24,400 1,091 Climbing FlightAware ADS-B
12:45PM 46.8971 -124.2040 85° East 559 643 24,400 1,091 Level FlightAware ADS-B
12:45PM 46.8972 -124.1770 93° East 563 648 24,600 2,000 Climbing FlightAware ADS-B
12:45PM 46.8956 -124.1570 98° East 563 648 24,800 2,571 Climbing FlightAware ADS-B
12:45PM 46.8903 -124.1260 107° East 560 644 25,200 2,727 Climbing FlightAware ADS-B
12:45PM 46.8954 -124.1555 105° East 561 646 25,300 2,400 Climbing FlightAware ADS-B
12:46PM 46.8800 -124.0920 117° Southeast 555 639 25,600 2,471 Climbing FlightAware ADS-B
12:46PM 46.8665 -124.0630 129° Southeast 546 628 26,000 2,769 Climbing FlightAware ADS-B
12:46PM 46.8642 -124.0594 131° Southeast 543 625 26,200 3,000 Climbing FlightAware ADS-B
12:46PM 46.8562 -124.0470 136° Southeast 539 620 26,300 2,000 Climbing FlightAware ADS-B
12:46PM 46.8428 -124.0310 143° Southeast 533 613 26,500 857 Climbing FlightAware ADS-B
12:46PM 46.8290 -124.0190 150° Southeast 529 609 26,500  Level FlightAware ADS-B
12:46PM 46.8388 -124.0274 155° Southeast 527 606 26,500 667 Level FlightAware ADS-B
12:46PM 46.8093 -124.0070 161° South 522 601 26,600 857 Climbing FlightAware ADS-B
12:46PM 46.7897 -124.0020 173° South 512 589 26,700 1,000 Climbing FlightAware ADS-B
12:46PM 46.8075 -124.0065 182° South 503 579 26,800 750 Climbing FlightAware ADS-B
12:46PM 46.7715 -124.0010 181° South 504 580 26,800 462 Level FlightAware ADS-B
12:47PM 46.7510 -124.0050 192° South 496 571 26,900  Climbing FlightAware ADS-B
12:47PM 46.7294 -124.0155 202° Southwest 490 564 26,800 -545 Descending FlightAware ADS-B
12:47PM 46.7273 -124.0170 202° Southwest 490 564 26,800  Level FlightAware ADS-B
12:47PM 46.7049 -124.0340 211° Southwest 488 562 26,800  Level FlightAware ADS-B
12:47PM 46.7003 -124.0380 215° Southwest 487 560 26,800 -400 Level FlightAware ADS-B
12:47PM 46.6494 -124.0910 217° Southwest 499 574 26,600 -923 Descending FlightAware ADS-B
12:48PM 46.6155 -124.1280 217° Southwest 505 581 26,200 -1,143 Descending FlightAware ADS-B
12:48PM 46.6107 -124.1330 218° Southwest 505 581 26,200 -750 Level FlightAware ADS-B
12:48PM 46.6013 -124.1450 223° Southwest 497 572 26,100 -667 Descending FlightAware ADS-B
12:48PM 46.5958 -124.1540 230° Southwest 489 563 26,100  Level FlightAware ADS-B
12:48PM 46.5887 -124.1710 242° Southwest 474 545 26,100 600 Level FlightAware ADS-B
12:48PM 46.5864 -124.1820 255° West 459 528 26,200 667 Climbing FlightAware ADS-B
12:48PM 46.5850 -124.2000 265° West 451 519 26,200  Level FlightAware ADS-B
12:48PM 46.5835 -124.2287 266° West 455 524 26,200  Level FlightAware ADS-B
12:49PM 46.5804 -124.2930 266° West 460 529 26,200 -343 Level FlightAware ADS-B
12:49PM 46.5781 -124.3500 268° West 461 531 26,000 -500 Descending FlightAware ADS-B
12:49PM 46.5791 -124.3670 279° West 457 526 26,000  Level FlightAware ADS-B
12:49PM 46.5818 -124.3790 289° West 451 519 26,000 171 Level FlightAware ADS-B
12:50PM 46.6059 -124.4650 292° West 449 517 26,100 -293 Climbing FlightAware ADS-B
12:50PM 46.6128 -124.4920 288° West 454 522 25,800 -923 Descending FlightAware ADS-B
12:50PM 46.6143 -124.5020 279° West 452 520 25,900 750 Climbing FlightAware ADS-B
12:50PM 46.6147 -124.5180 270° West 450 518 25,900 -387 Level FlightAware ADS-B
12:50PM 46.6123 -124.5970 270° West 458 527 25,700 -182 Descending FlightAware ADS-B
12:51PM 46.6152 -124.6170 287° West 446 513 25,800 1,263 Climbing FlightAware ADS-B
12:51PM 46.6239 -124.6490 291° West 444 511 26,100 1,500 Climbing FlightAware ADS-B
12:51PM 46.6315 -124.6840 284° West 443 510 26,400 -194 Climbing FlightAware ADS-B
12:51PM 46.6395 -124.7410 280° West 454 522 26,000 -1,200 Descending FlightAware ADS-B
12:51PM 46.6405 -124.7590 272° West 458 527 25,900 -1,200 Descending FlightAware ADS-B
12:51PM 46.6397 -124.7710 264° West 460 529 25,800 -1,333 Descending FlightAware ADS-B
12:52PM 46.6366 -124.7850 251° West 464 534 25,700  Descending FlightAware ADS-B
12:52PM 46.6280 -124.8080 240° Southwest 469 540 25,800 474 Climbing FlightAware ADS-B
12:52PM 46.5932 -124.8860 236° Southwest 449 517 26,000 290 Climbing FlightAware ADS-B
12:53PM 46.5546 -124.9640 234° Southwest 452 520 26,100 469 Climbing FlightAware ADS-B
12:53PM 46.5145 -125.0410 232° Southwest 458 527 26,500 966 Climbing FlightAware ADS-B
12:54PM 46.4405 -125.1750 231° Southwest 465 535 27,500 977 Climbing FlightAware ADS-B
12:55PM 46.3983 -125.2510 231° Southwest 472 543 27,900 448 Climbing FlightAware ADS-B
12:55PM 46.3489 -125.3400 231° Southwest 479 551 28,000  Climbing FlightAware ADS-B
12:56PM 46.3067 -125.4170 232° Southwest 476 548 27,900 250 Descending FlightAware ADS-B
12:56PM 46.2923 -125.4630 248° West 455 524 28,200  Climbing FlightAware ADS-B
12:57PM 46.2730 -125.5510 250° West 455 524 27,900 -1,435 Descending FlightAware ADS-B
12:57PM 46.2496 -125.5880 214° Southwest 487 560 27,100 -2,769 Descending FlightAware ADS-B
12:57PM 46.2290 -125.5990 199° South 506 582 26,700 240 Descending FlightAware ADS-B
12:58PM 46.1526 -125.6670 205° Southwest 494 568 27,300 391 Climbing FlightAware ADS-B
01:01PM 46.0156 -125.3990 48° Northeast 556 640 28,200 96 Climbing FlightAware ADS-B
01:03PM 46.2765 -125.2120 22° Northeast 498 573 27,800 -79 Descending FlightAware ADS-B
01:03PM 46.3403 -125.1750 22° Northeast 490 564 28,000 300 Climbing FlightAware ADS-B
01:04PM 46.3612 -125.1620 26° Northeast 496 571 28,000  Level FlightAware ADS-B
01:04PM 46.3884 -125.1360 38° Northeast 511 588 28,000  Level FlightAware ADS-B
01:04PM 46.4279 -125.0900 36° Northeast 510 587 28,000  Level FlightAware ADS-B
01:05PM 46.4864 -125.0320 34° Northeast 517 595 28,000  Level FlightAware ADS-B
01:05PM 46.5244 -124.9950 35° Northeast 529 609 28,000 -462 Level FlightAware ADS-B
01:05PM 46.5386 -124.9790 39° Northeast 539 620 27,800 -3,000 Descending FlightAware ADS-B
01:05PM 46.5735 -124.9300 49° Northeast 567 652 26,700 -3,517 Descending FlightAware ADS-B
01:06PM 46.5891 -124.9010 53° Northeast 583 671 26,100 -3,273 Descending FlightAware ADS-B
01:06PM 46.6070 -124.8620 59° Northeast 583 671 25,500 -3,571 Descending FlightAware ADS-B
01:06PM 46.6465 -124.7580 62° Northeast 583 671 23,600 -3,733 Descending FlightAware ADS-B
01:06PM 46.6649 -124.7060 64° Northeast 587 676 22,700 -2,769 Descending FlightAware ADS-B
01:07PM 46.6781 -124.6670 62° Northeast 572 658 22,400 -146 Descending FlightAware ADS-B
01:07PM 46.7194 -124.5710 58° Northeast 543 625 22,600 130 Climbing FlightAware ADS-B
01:07PM 46.7403 -124.5240 56° Northeast 525 604 22,500 -947 Descending FlightAware ADS-B
01:08PM 46.7612 -124.4840 50° Northeast 503 579 22,000 -1,111 Descending FlightAware ADS-B
01:08PM 46.7793 -124.4520 51° Northeast 507 583 22,000  Level FlightAware ADS-B
01:08PM 46.7910 -124.4300 55° Northeast 515 593 22,000  Level FlightAware ADS-B
01:08PM 46.8056 -124.3940 62° Northeast 525 604 22,000  Level FlightAware ADS-B
01:08PM 46.8143 -124.3680 66° East 531 611 22,000  Level FlightAware ADS-B
01:09PM 46.8225 -124.3370 71° East 535 616 22,000  Level FlightAware ADS-B
01:09PM 46.8286 -124.3070 75° East 535 616 22,000  Level FlightAware ADS-B
01:09PM 46.8263 -124.3191 78° East 533 613 22,000  Level FlightAware ADS-B
01:09PM 46.8344 -124.2650 81° East 532 612 22,000  Level FlightAware ADS-B
01:09PM 46.8454 -124.1570 81° East 526 605 22,000  Level FlightAware ADS-B
01:09PM 46.8469 -124.1420 82° East 525 604 22,000  Level FlightAware ADS-B
01:10PM 46.8562 -124.0520 81° East 524 603 22,000  Level FlightAware ADS-B
01:10PM 46.8606 -124.0099 81° East 524 603 22,000  Level FlightAware ADS-B (CYVR)
01:10PM 46.8694 -123.9250 81° East 524 603 22,000  Level FlightAware ADS-B
01:11PM 46.8715 -123.9046 81° East 524 603 22,000  Level FlightAware ADS-B (CYVR)
01:11PM 46.8804 -123.8190 81° East 524 603 22,000  Level FlightAware ADS-B
01:11PM 46.8812 -123.8110 81° East 524 603 22,000  Level FlightAware ADS-B (CYVR)
01:11PM 46.8913 -123.7140 82° East 524 603 22,000 -200 Level FlightAware ADS-B
01:12PM 46.8931 -123.6958 81° East 523 602 21,900 -1,548 Descending FlightAware ADS-B (CYVR)
01:12PM 46.9022 -123.6080 81° East 526 605 21,200 -1,800 Descending FlightAware ADS-B
01:12PM 46.9013 -123.6166 82° East 520 598 20,700 -1,800 Descending FlightAware ADS-B (CYVR)
01:12PM 46.9126 -123.5030 82° East 515 593 20,300 -1,742 Descending FlightAware ADS-B
01:13PM 46.9167 -123.4628 82° East 512 589 19,800 -1,935 Descending FlightAware ADS-B (CYVR)
01:13PM 46.9235 -123.3960 82° East 512 589 19,300 -2,154 Descending FlightAware ADS-B
01:13PM 46.9308 -123.3233 82° East 503 579 18,400 -2,000 Descending FlightAware ADS-B (CYVR)
01:14PM 46.9337 -123.2940 82° East 500 575 18,300 -973 Descending FlightAware ADS-B
01:14PM 46.9433 -123.1960 82° East 471 542 17,800 -787 Descending FlightAware ADS-B
01:15PM 46.9523 -123.1030 82° East 442 509 17,500 -500 Descending FlightAware ADS-B
01:15PM 46.9606 -123.0160 82° East 419 482 17,300 -480 Descending FlightAware ADS-B
01:15PM 46.9659 -122.9620 81° East 405 466 17,100 -522 Descending FlightAware ADS-B
01:15PM 46.9668 -122.9540 80° East 403 464 17,100 -750 Level FlightAware ADS-B
01:15PM 46.9688 -122.9410 75° East 398 458 17,000 -545 Descending FlightAware ADS-B
01:16PM 46.9725 -122.9260 69° East 394 453 17,000 -500 Level FlightAware ADS-B
01:16PM 46.9768 -122.9120 64° Northeast 392 451 16,900 -1,091 Descending FlightAware ADS-B
01:16PM 46.9814 -122.9000 59° Northeast 389 448 16,800 -1,091 Descending FlightAware ADS-B
01:16PM 46.9881 -122.8850 53° Northeast 385 443 16,700 -1,600 Descending FlightAware ADS-B
01:16PM 46.9983 -122.8680 46° Northeast 378 435 16,400 -1,765 Descending FlightAware ADS-B
01:16PM 47.0083 -122.8550 41° Northeast 373 429 16,200 -1,538 Descending FlightAware ADS-B
01:17PM 47.0483 -122.8040 41° Northeast 368 423 15,400 -1,475 Descending FlightAware ADS-B
01:17PM 47.0869 -122.7550 41° Northeast 361 415 14,700 -1,258 Descending FlightAware ADS-B
01:18PM 47.1253 -122.7060 41° Northeast 343 395 14,100 -1,179 Descending FlightAware ADS-B
01:18PM 47.1532 -122.6702 41° Northeast 332 382 13,600 -1,400 Descending FlightAware ADS-B (CYVR)
01:18PM 47.1606 -122.6610 41° Northeast 332 382 13,400 -2,000 Descending FlightAware ADS-B
01:19PM 47.1875 -122.6262 41° Northeast 330 380 12,600 -2,000 Descending FlightAware ADS-B (CYVR)
01:19PM 47.1953 -122.6160 41° Northeast 328 377 12,400 -2,108 Descending FlightAware ADS-B
01:19PM 47.2297 -122.5720 41° Northeast 322 371 11,300 -2,361 Descending FlightAware ADS-B
01:20PM 47.2637 -122.5280 41° Northeast 313 360 10,000 -2,426 Descending FlightAware ADS-B
01:20PM 47.2812 -122.5060 41° Northeast 308 354 9,400 -2,250 Descending FlightAware ADS-B
01:20PM 47.2977 -122.4840 41° Northeast 303 349 8,800 -2,348 Descending FlightAware ADS-B
01:20PM 47.3055 -122.4740 40° Northeast 302 348 8,500 -2,182 Descending FlightAware ADS-B
01:20PM 47.3088 -122.4710 37° Northeast 300 345 8,400 -1,000 Descending FlightAware ADS-B
01:20PM 47.3128 -122.4670 32° Northeast 298 343 8,400 -857 Level FlightAware ADS-B
01:21PM 47.3176 -122.4630 25° Northeast 293 337 8,300 -1,714 Descending FlightAware ADS-B
01:21PM 47.3219 -122.4610 19° North 289 333 8,200 -750 Descending FlightAware ADS-B
01:21PM 47.3280 -122.4590 11° North 282 325 8,200 -667 Level FlightAware ADS-B
01:21PM 47.3324 -122.4580 North 278 320 8,100 -857 Descending FlightAware ADS-B
01:21PM 47.3367 -122.4580 North 276 318 8,100 -947 Level FlightAware ADS-B
01:21PM 47.3572 -122.4560 North 267 307 7,800 -1,091 Descending FlightAware ADS-B
01:21PM 47.3766 -122.4550 North 253 291 7,500 -1,273 Descending FlightAware ADS-B
01:22PM 47.3949 -122.4530 North 245 282 7,100 -1,161 Descending FlightAware ADS-B
01:22PM 47.4115 -122.4510 North 233 268 6,900 -1,400 Descending FlightAware ADS-B
01:22PM 47.4278 -122.4490 North 235 270 6,400 -1,800 Descending FlightAware ADS-B
01:22PM 47.4446 -122.4470 North 236 272 6,000 -968 Descending FlightAware ADS-B
01:23PM 47.4611 -122.4450 North 234 269 5,900 -194 Descending FlightAware ADS-B
01:23PM 47.4776 -122.4430 North 232 267 5,900 -240 Level FlightAware ADS-B
01:23PM 47.4877 -122.4410 North 228 262 5,800 -750 Descending FlightAware ADS-B
01:23PM 47.5022 -122.4410 North 225 259 5,600 -960 Descending FlightAware ADS-B
01:23PM 47.5138 -122.4400 360° North 223 257 5,400 -1,091 Descending FlightAware ADS-B
01:24PM 47.5251 -122.4400 359° North 222 255 5,200 -1,286 Descending FlightAware ADS-B
01:24PM 47.5290 -122.4410 357° North 221 254 5,100 -1,714 Descending FlightAware ADS-B
01:24PM 47.5326 -122.4410 353° North 221 254 5,000 -750 Descending FlightAware ADS-B
01:24PM 47.5368 -122.4430 346° North 219 252 5,000  Level FlightAware ADS-B
01:24PM 47.5410 -122.4450 340° North 222 255 5,000  Level FlightAware ADS-B
01:24PM 47.5450 -122.4470 336° Northwest 224 258 5,000  Level FlightAware ADS-B
01:24PM 47.5488 -122.4500 334° Northwest 224 258 5,000  Level FlightAware ADS-B
01:24PM 47.5580 -122.4570 331° Northwest 222 255 5,000  Level FlightAware ADS-B
01:24PM 47.5710 -122.4690 329° Northwest 209 241 5,000 -194 Level FlightAware ADS-B
01:25PM 47.5840 -122.4800 329° Northwest 199 229 4,900 -188 Descending FlightAware ADS-B
01:25PM 47.5959 -122.4910 328° Northwest 199 229 4,900  Level FlightAware ADS-B
01:25PM 47.6130 -122.5070 328° Northwest 200 230 4,900  Level FlightAware ADS-B
01:26PM 47.6253 -122.5180 329° Northwest 202 232 4,900  Level FlightAware ADS-B
01:26PM 47.6373 -122.5290 329° Northwest 203 234 4,900  Level FlightAware ADS-B
01:26PM 47.6587 -122.5480 329° Northwest 203 234 4,900  Level FlightAware ADS-B
01:27PM 47.6806 -122.5670 329° Northwest 203 234 4,900  Level FlightAware ADS-B
01:27PM 47.6866 -122.5720 333° Northwest 202 232 4,900  Level FlightAware ADS-B
01:27PM 47.6913 -122.5750 344° North 201 231 4,900 -1,000 Level FlightAware ADS-B
01:27PM 47.7119 -122.5640 344° North 201 231 4,400 -1,200 Descending FlightAware ADS-B
01:27PM 47.7145 -122.5590 54° Northeast 199 229 4,300 -1,263 Descending FlightAware ADS-B
01:28PM 47.7308 -122.5220 58° Northeast 199 229 3,600 -1,375 Descending FlightAware ADS-B
01:28PM 47.7382 -122.5060 55° Northeast 186 214 3,200 -1,600 Descending FlightAware ADS-B
01:29PM 47.7458 -122.4890 56° Northeast 182 209 2,800 -1,565 Descending FlightAware ADS-B
01:29PM 47.7486 -122.4810 69° East 179 206 2,600 -1,500 Descending FlightAware ADS-B
01:29PM 47.7493 -122.4760 81° East 178 205 2,500 -462 Descending FlightAware ADS-B
01:30PM 47.7087 -122.4570 94° East 177 204 2,100 -300 Descending FlightAware ADS-B
01:30PM 47.6960 -122.4440 143° Southeast 180 207 2,100  Level FlightAware ADS-B
01:30PM 47.6804 -122.4300 143° Southeast 180 207 2,100  Level FlightAware ADS-B
01:31PM 47.6659 -122.4180 143° Southeast 180 207 2,100  Level FlightAware ADS-B
01:31PM 47.6597 -122.4130 150° Southeast 169 194 2,100  Level FlightAware ADS-B
01:31PM 47.6487 -122.4030 149° Southeast 165 190 2,100  Level FlightAware ADS-B
01:31PM 47.6411 -122.3960 147° Southeast 165 190 2,100  Level FlightAware ADS-B
01:32PM 47.6342 -122.3900 147° Southeast 167 192 2,100 -480 Level FlightAware ADS-B
01:32PM 47.6249 -122.3820 151° Southeast 165 190 1,900 -973 Descending FlightAware ADS-B
01:32PM 47.6095 -122.3690 151° Southeast 162 186 1,500 -923 Descending FlightAware ADS-B
01:32PM 47.5987 -122.3600 150° Southeast 165 190 1,300 -727 Descending FlightAware ADS-B
01:33PM 47.5879 -122.3510 150° Southeast 163 188 1,100 -814 Descending FlightAware ADS-B
01:33PM 47.5608 -122.3328 150° Southeast 161 185 500 -828 Descending Seattle Center
01:34PM 47.5517 -122.3225 143° Southeast 166 191 300 -234 Descending Seattle Center
01:35PM 47.5161 -122.2906 149° Southeast 166 191 200 -98 Descending Seattle Center

Login

Don't have an account? Register now (free) for customized features, flight alerts, and more!